Location: Cheching
(60.0667°N, 164.2167°W)
Time: 01:51:28
(UTC+00:00)

DX 1 - Pass Details

Date: 31 January 2021
Orbit: 618 x 631 km, 98.5° (Epoch: 07 March)

Event Time Altitude Azimuth Distance (km) Brightness Sun altitude
Rises 18:08:16 0° 213° (SSW) 2,906 ? -7.9°
Reaches altitude 10° 18:11:15 10° 236° (SW) 2,002 ? -7.5°
Maximum altitude 18:13:56 16° 274° (W) 1,651 ? -7.2°
Drops below altitude 10° 18:16:36 10° 312° (NW) 2,007 ? -6.9°
Enters shadow 18:19:10 - 332° (NNW) 2,763 ? -6.6°
